EN

Hourly Weather Gofickoe

Today, 18 May, Tuesday

Time Temperature Precipitation Wind Pressure Humidity
00:00 +16°C° 1.2 mm 8 mps 736 mmHg 92%
01:00 +16°C° 0.5 mm 7 mps 736 mmHg 92%
02:00 +15°C° 0.5 mm 7 mps 736 mmHg 92%
03:00 +15°C° 0 mm 6 mps 737 mmHg 92%
04:00 +15°C° 1.4 mm 7 mps 737 mmHg 92%
05:00 +14°C° 1.4 mm 7 mps 737 mmHg 93%
06:00 +14°C° 1.4 mm 7 mps 737 mmHg 93%
07:00 +14°C° 0.3 mm 7 mps 737 mmHg 91%
08:00 +15°C° 0.3 mm 6 mps 737 mmHg 89%
09:00 +15°C° 0.3 mm 6 mps 738 mmHg 87%
10:00 +17°C° 0 mm 6 mps 738 mmHg 79%
11:00 +19°C° 0 mm 5 mps 738 mmHg 71%
12:00 +21°C° 0 mm 5 mps 738 mmHg 63%
13:00 +22°C° 0 mm 5 mps 738 mmHg 61%
14:00 +22°C° 0 mm 4 mps 738 mmHg 58%
15:00 +23°C° 0 mm 4 mps 738 mmHg 56%
16:00 +22°C° 0 mm 3 mps 738 mmHg 58%
17:00 +23°C° 0 mm 2 mps 738 mmHg 61%
18:00 +23°C° 0 mm 2 mps 738 mmHg 64%
19:00 +21°C° 0 mm 1 mps 738 mmHg 68%
20:00 +20°C° 0 mm 1 mps 738 mmHg 72%
21:00 +18°C° 0 mm 1 mps 738 mmHg 76%
22:00 +18°C° 0 mm 1 mps 738 mmHg 78%
23:00 +16°C° 0 mm 1 mps 738 mmHg 79%

Tomorrow, 19 May, Wednesday

Time Temperature Precipitation Wind Pressure Humidity
00:00 +16°C° 0 mm 2 mps 738 mmHg 81%
01:00 +16°C° 0 mm 2 mps 737 mmHg 82%
02:00 +15°C° 0 mm 2 mps 737 mmHg 84%
03:00 +15°C° 0 mm 2 mps 737 mmHg 85%
04:00 +14°C° 0 mm 3 mps 737 mmHg 84%
05:00 +15°C° 0 mm 4 mps 736 mmHg 83%
06:00 +15°C° 0 mm 4 mps 736 mmHg 81%
07:00 +17°C° 0 mm 4 mps 736 mmHg 77%
08:00 +19°C° 0 mm 4 mps 737 mmHg 73%
09:00 +20°C° 0 mm 5 mps 737 mmHg 68%
10:00 +20°C° 0.1 mm 6 mps 737 mmHg 71%
11:00 +20°C° 0.1 mm 7 mps 738 mmHg 73%
12:00 +20°C° 0.1 mm 8 mps 739 mmHg 76%
13:00 +20°C° 0.1 mm 8 mps 739 mmHg 70%
14:00 +20°C° 0.1 mm 8 mps 739 mmHg 65%
15:00 +20°C° 0.1 mm 8 mps 739 mmHg 60%
16:00 +19°C° 0 mm 6 mps 740 mmHg 62%
17:00 +19°C° 0 mm 5 mps 740 mmHg 65%
18:00 +19°C° 0 mm 4 mps 741 mmHg 67%
19:00 +17°C° 0 mm 3 mps 741 mmHg 72%
20:00 +16°C° 0 mm 2 mps 742 mmHg 77%
21:00 +14°C° 0 mm 2 mps 742 mmHg 82%
22:00 +14°C° 0 mm 1 mps 742 mmHg 82%
23:00 +13°C° 0 mm 1 mps 742 mmHg 81%

Day after tomorrow, 20 May, Thursday

Time Temperature Precipitation Wind Pressure Humidity
00:00 +13°C° 0 mm 1 mps 742 mmHg 81%
01:00 +12°C° 0 mm 1 mps 742 mmHg 82%
02:00 +12°C° 0 mm 1 mps 742 mmHg 84%
03:00 +12°C° 0 mm 1 mps 742 mmHg 85%
04:00 +12°C° 0 mm 2 mps 742 mmHg 86%
05:00 +13°C° 0 mm 2 mps 742 mmHg 86%
06:00 +14°C° 0 mm 2 mps 742 mmHg 87%
07:00 +16°C° 0 mm 3 mps 742 mmHg 80%
08:00 +18°C° 0 mm 4 mps 742 mmHg 72%
09:00 +20°C° 0 mm 5 mps 742 mmHg 65%
10:00 +21°C° 0 mm 5 mps 742 mmHg 61%
11:00 +22°C° 0 mm 5 mps 742 mmHg 58%
12:00 +23°C° 0 mm 5 mps 741 mmHg 54%
13:00 +23°C° 0 mm 5 mps 741 mmHg 53%
14:00 +25°C° 0 mm 5 mps 741 mmHg 52%
15:00 +25°C° 0 mm 4 mps 741 mmHg 51%
16:00 +25°C° 0 mm 4 mps 741 mmHg 54%
17:00 +23°C° 0 mm 4 mps 741 mmHg 57%
18:00 +22°C° 0 mm 4 mps 741 mmHg 61%
19:00 +21°C° 0 mm 3 mps 741 mmHg 64%
20:00 +19°C° 0 mm 3 mps 741 mmHg 67%
21:00 +17°C° 0 mm 3 mps 741 mmHg 70%
22:00 +17°C° 0 mm 3 mps 740 mmHg 70%
23:00 +17°C° 0 mm 4 mps 740 mmHg 69%

21 May, Friday

Time Temperature Precipitation Wind Pressure Humidity
00:00 +15°C° 0 mm 5 mps 740 mmHg 69%
01:00 +14°C° 0 mm 4 mps 740 mmHg 69%
02:00 +14°C° 0 mm 4 mps 740 mmHg 68%
03:00 +13°C° 0 mm 4 mps 739 mmHg 68%
04:00 +13°C° 0 mm 4 mps 740 mmHg 68%
05:00 +14°C° 0 mm 5 mps 740 mmHg 68%
06:00 +14°C° 0 mm 5 mps 740 mmHg 69%
07:00 +16°C° 0 mm 6 mps 740 mmHg 65%
08:00 +18°C° 0 mm 7 mps 739 mmHg 62%
09:00 +21°C° 0 mm 8 mps 739 mmHg 59%
10:00 +23°C° 0 mm 8 mps 739 mmHg 56%
11:00 +24°C° 0 mm 8 mps 739 mmHg 53%
12:00 +27°C° 0 mm 8 mps 739 mmHg 51%
13:00 +28°C° 0 mm 8 mps 738 mmHg 50%
14:00 +29°C° 0 mm 8 mps 738 mmHg 49%
15:00 +31°C° 0 mm 8 mps 738 mmHg 48%
16:00 +29°C° 0 mm 8 mps 738 mmHg 50%
17:00 +28°C° 0 mm 8 mps 738 mmHg 52%
18:00 +27°C° 0 mm 8 mps 737 mmHg 54%
19:00 +24°C° 0 mm 8 mps 737 mmHg 56%
20:00 +23°C° 0 mm 8 mps 738 mmHg 57%
21:00 +21°C° 0 mm 8 mps 738 mmHg 58%
22:00 +20°C° 0 mm 7 mps 737 mmHg 59%
23:00 +18°C° 0 mm 7 mps 737 mmHg 61%

22 May, Saturday

Time Temperature Precipitation Wind Pressure Humidity
00:00 +17°C° 0 mm 7 mps 737 mmHg 63%
01:00 +16°C° 0 mm 6 mps 737 mmHg 66%
02:00 +16°C° 0 mm 5 mps 737 mmHg 69%
03:00 +15°C° 0 mm 4 mps 736 mmHg 73%
04:00 +15°C° 0 mm 4 mps 736 mmHg 74%
05:00 +16°C° 0 mm 3 mps 737 mmHg 75%
06:00 +17°C° 0 mm 3 mps 737 mmHg 77%
07:00 +19°C° 0 mm 4 mps 736 mmHg 72%
08:00 +21°C° 0 mm 4 mps 736 mmHg 66%
09:00 +23°C° 0 mm 5 mps 736 mmHg 61%
10:00 +26°C° 0 mm 5 mps 736 mmHg 57%
11:00 +28°C° 0 mm 6 mps 736 mmHg 53%
12:00 +29°C° 0 mm 6 mps 736 mmHg 50%
13:00 +32°C° 0 mm 6 mps 736 mmHg 47%
14:00 +33°C° 0 mm 5 mps 736 mmHg 44%
15:00 +34°C° 0 mm 5 mps 735 mmHg 41%
16:00 +33°C° 0 mm 4 mps 736 mmHg 46%
17:00 +31°C° 0 mm 3 mps 736 mmHg 50%
18:00 +30°C° 0 mm 3 mps 736 mmHg 55%
19:00 +28°C° 0 mm 2 mps 736 mmHg 56%
20:00 +26°C° 0 mm 2 mps 736 mmHg 57%
21:00 +24°C° 0 mm 2 mps 736 mmHg 59%
22:00 +23°C° 0 mm 2 mps 736 mmHg 59%
23:00 +21°C° 0 mm 2 mps 736 mmHg 60%

23 May, Sunday

Time Temperature Precipitation Wind Pressure Humidity
00:00 +20°C° 0 mm 2 mps 736 mmHg 61%
01:00 +19°C° 0 mm 2 mps 736 mmHg 63%
02:00 +20°C° 0 mm 1 mps 736 mmHg 65%
03:00 +19°C° 0 mm 1 mps 736 mmHg 67%
04:00 +20°C° 0 mm 1 mps 736 mmHg 69%
05:00 +20°C° 0 mm 1 mps 736 mmHg 70%
06:00 +21°C° 0 mm 1 mps 736 mmHg 71%
07:00 +23°C° 0 mm 2 mps 736 mmHg 70%
08:00 +25°C° 0 mm 3 mps 736 mmHg 69%
09:00 +27°C° 0 mm 4 mps 736 mmHg 68%
10:00 +28°C° 0 mm 3 mps 736 mmHg 64%
11:00 +29°C° 0 mm 3 mps 736 mmHg 61%
12:00 +31°C° 0 mm 3 mps 737 mmHg 57%
13:00 +31°C° 0 mm 2 mps 737 mmHg 55%
14:00 +32°C° 0 mm 2 mps 737 mmHg 53%
15:00 +32°C° 0 mm 1 mps 737 mmHg 51%
16:00 +32°C° 0 mm 1 mps 737 mmHg 53%
17:00 +32°C° 0 mm 1 mps 737 mmHg 56%
18:00 +32°C° 0 mm 1 mps 737 mmHg 58%
19:00 +28°C° 0 mm 0 mps 737 mmHg 63%
20:00 +26°C° 0 mm 0 mps 737 mmHg 68%
21:00 +24°C° 0 mm 0 mps 738 mmHg 73%
22:00 +23°C° 0 mm 0 mps 738 mmHg 75%
23:00 +25°C° 0 mm 1 mps 738 mmHg 77%
Show more